EW9837 Weather Reports


Display with metric or nautical units.
time (UTC)temp
F
wind
direction
speed
MPH
gust
MPH
rain 1hr
in
rain 24hr
in
rain mn
in
humidity
%
barometer
mb
20260506000036 76 263 4.0 10.0 0.00 0.00 0.00 51 1014.7
20260505234535 75 33 3.0 8.0 0.00 0.00 0.00 53 1014.9
20260505233153 74 71 6.0 14.0 0.00 0.00 0.00 53 1014.9
20260505231536 74 85 6.0 12.0 0.00 0.00 0.00 53 1014.9
20260505230037 74 83 7.0 13.0 0.00 0.00 0.00 53 1015.0
20260505224537 74 70 7.0 12.0 0.00 0.00 0.00 53 1015.1
20260505223143 74 66 8.0 12.0 0.00 0.00 0.00 53 1015.2
20260505221537 74 78 8.0 13.0 0.00 0.00 0.00 51 1015.3
20260505220035 76 60 6.0 12.0 0.00 0.00 0.00 48 1015.4
20260505214609 76 32 5.0 15.0 0.00 0.00 0.00 49 1015.5
20260505213034 75 14 5.0 14.0 0.00 0.00 0.00 50 1015.6
20260505211537 74 56 6.0 13.0 0.00 0.00 0.00 52 1015.6
20260505210035 73 56 7.0 12.0 0.00 0.00 0.00 52 1015.7
20260505204607 74 70 6.0 15.0 0.00 0.00 0.00 50 1015.9
20260505201534 74 34 6.0 12.0 0.00 0.00 0.00 50 1016.0
20260505200108 74 45 4.0 13.0 0.00 0.00 0.00 49 1016.0
20260505194535 73 33 5.0 11.0 0.00 0.00 0.00 50 1016.1
20260505193034 72 58 4.0 8.0 0.00 0.00 0.00 52 1016.2
20260505191536 72 70 5.0 11.0 0.00 0.00 0.00 51 1016.3
20260505190031 72 14 4.0 9.0 0.00 0.00 0.00 51 1016.4
20260505184534 72 36 4.0 8.0 0.00 0.00 0.00 52 1016.4
20260505183106 72 44 4.0 10.0 0.00 0.00 0.00 52 1016.4
20260505181536 71 46 4.0 8.0 0.00 0.00 0.00 52 1016.4
20260505180035 70 17 3.0 7.0 0.00 0.00 0.00 53 1016.4
20260505174535 70 99 3.0 8.0 0.00 0.00 0.00 54 1016.4
20260505173110 69 63 3.0 7.0 0.00 0.00 0.00 55 1016.3
20260505171534 68 52 4.0 7.0 0.00 0.00 0.00 56 1016.3
20260505170047 68 111 2.0 6.0 0.00 0.00 0.00 55 1016.3
20260505163036 66 66 2.0 6.0 0.00 0.00 0.00 60 1016.2
20260505161609 65 76 2.0 6.0 0.00 0.00 0.00 62 1016.2
20260505153107 61 84 2.0 4.0 0.00 0.00 0.00 71 1016.2
20260505151534 60 74 3.0 6.0 0.00 0.00 0.00 73 1016.2
20260505150107 58 81 3.0 6.0 0.00 0.00 0.00 79 1016.1
20260505124608 45 169 2.0 5.0 0.00 0.00 0.00 95 1015.0
20260505123036 44 169 3.0 5.0 0.00 0.00 0.00 95 1015.0
20260505121608 45 155 3.0 4.0 0.00 0.00 0.00 95 1015.0
20260505120035 45 155 3.0 4.0 0.00 0.00 0.00 94 1014.9
20260505113035 45 165 2.0 4.0 0.00 0.00 0.00 94 1014.9
20260505111607 46 175 3.0 4.0 0.00 0.00 0.00 94 1014.8
20260505101608 47 164 3.0 4.0 0.00 0.00 0.00 91 1014.5
20260505100047 47 187 2.0 4.0 0.00 0.00 0.00 90 1014.5
20260505094534 48 200 1.0 5.0 0.00 0.00 0.00 89 1014.4
20260505093108 49 199 2.0 5.0 0.00 0.00 0.00 87 1014.4
20260505091536 50 156 2.0 5.0 0.00 0.00 0.00 84 1014.3
20260505090036 52 146 2.0 4.0 0.00 0.00 0.00 83 1014.3
20260505084534 52 158 3.0 6.0 0.00 0.00 0.00 83 1014.2
20260505083033 52 92 2.0 6.0 0.00 0.00 0.00 83 1014.2
20260505081535 54 140 0.0 3.0 0.00 0.00 0.00 81 1014.2
20260505080037 56 106 2.0 5.0 0.00 0.00 0.00 80 1014.3
20260505074607 56 115 2.0 6.0 0.00 0.00 0.00 79 1014.2
20260505073037 58 149 1.0 6.0 0.00 0.00 0.00 77 1014.2
20260505071537 57 127 3.0 8.0 0.00 0.00 0.00 79 1014.1
20260505070107 58 92 2.0 5.0 0.00 0.00 0.00 77 1014.0
20260505064534 58 132 1.0 8.0 0.00 0.00 0.00 76 1014.0
20260505061643 60 102 2.0 5.0 0.00 0.00 0.00 71 1014.0
20260505053037 62 208 3.0 6.0 0.00 0.00 0.00 66 1013.9
20260505051538 62 276 2.0 7.0 0.00 0.00 0.00 64 1013.9
20260505041536 63 197 3.0 7.0 0.00 0.00 0.00 57 1013.5
20260505040049 64 211 2.0 6.0 0.00 0.00 0.00 53 1013.3
20260505033110 65 268 5.0 14.0 0.00 0.00 0.00 50 1012.9
20260505031534 66 110 3.0 7.0 0.00 0.00 0.00 48 1012.6
20260505030037 67 218 3.0 13.0 0.00 0.00 0.00 47 1012.5
20260505024534 68 192 3.0 12.0 0.00 0.00 0.00 45 1012.4
20260505023036 69 231 4.0 14.0 0.00 0.00 0.00 44 1012.3
20260505021658 70 285 4.0 13.0 0.00 0.00 0.00 43 1012.2
20260505020036 71 304 5.0 13.0 0.00 0.00 0.00 42 1012.2
20260505013110 74 259 3.0 11.0 0.00 0.00 0.00 38 1012.1
20260505011535 75 269 3.0 12.0 0.00 0.00 0.00 36 1012.0
20260505010033 75 247 6.0 14.0 0.00 0.00 0.00 36 1012.0
20260505004535 76 241 7.0 18.0 0.00 0.00 0.00 35 1012.1